This is the latest recevied weather packets stored in our database for station/object W0PE-1. If no packets are shown the sender has not sent any weather packets the latest 10 day(s).
| Time | Temp. | Humidity | Pressure | Rain* | Wind** | Luminosity | Snow |
|---|---|---|---|---|---|---|---|
| 1777855535 | 19.44° C | 59% | 1012.3 hPa | 0 mm | - | - | - |
| 1777854637 | 19.44° C | 59% | 1012 hPa | 0 mm | - | - | - |
| 1777853740 | 19.44° C | 58% | 1011.9 hPa | 0 mm | - | - | - |
| 1777852842 | 20° C | 58% | 1011.6 hPa | 0 mm | - | - | - |
| 1777851933 | 20° C | 57% | 1011.5 hPa | 0 mm | - | - | - |
| 1777851032 | 20° C | 59% | 1011.8 hPa | 0 mm | - | - | - |
| 1777850130 | 20° C | 59% | 1012 hPa | 0 mm | - | - | - |
| 1777849228 | 20° C | 60% | 1012.1 hPa | 0 mm | - | - | - |
| 1777848336 | 19.44° C | 60% | 1012.2 hPa | 0 mm | - | - | - |
| 1777847430 | 19.44° C | 60% | 1012.4 hPa | 0 mm | - | - | - |
| 1777846527 | 19.44° C | 62% | 1012.5 hPa | 0 mm | - | - | - |
| 1777845627 | 18.89° C | 63% | 1012.7 hPa | 0 mm | - | - | - |
| 1777844731 | 18.89° C | 66% | 1012.7 hPa | 0 mm | - | - | - |
| 1777843826 | 18.89° C | 66% | 1012.8 hPa | 0 mm | - | - | - |
| 1777842923 | 18.89° C | 67% | 1013 hPa | 0 mm | - | - | - |
| 1777842039 | 19.44° C | 67% | 1012.9 hPa | 0 mm | - | - | - |
| 1777841125 | 19.44° C | 67% | 1012.9 hPa | 0 mm | - | - | - |
| 1777840221 | 19.44° C | 66% | 1013.1 hPa | 0 mm | - | - | - |
| 1777839327 | 20° C | 67% | 1013.2 hPa | 0 mm | - | - | - |
| 1777838420 | 19.44° C | 70% | 1013.3 hPa | 0 mm | - | - | - |
| 1777837517 | 18.33° C | 72% | 1013.4 hPa | 0 mm | - | - | - |
| 1777836614 | 17.78° C | 74% | 1013.8 hPa | 0 mm | - | - | - |
| 1777835710 | 17.22° C | 77% | 1013.7 hPa | 0 mm | - | - | - |
| 1777834811 | 17.22° C | 79% | 1014.1 hPa | 0 mm | - | - | - |
| 1777833904 | 16.11° C | 82% | 1014.2 hPa | 0 mm | - | - | - |
* Rain latest hour (hover to see other rain measurements)
** Current wind speed in m/s (hover to see current wind gust speed)